Retour au catalogue

COSMOS 1867 COOLANT

ActifLEO
NORAD 39657·DEBRIS·🇷🇺 Russia

Lancé Jul 10, 1987 depuis Baikonur Cosmodrome

Loading…

Prochains Passages (prochaines 24 heures)

TLE

FraisSource: Space-Track

Époque: Sep 14, 2026, 05:20 UTC

1 39657U 87060U   26257.22254587  .00000119  00000-0  78585-4 0  9996
2 39657  65.0063 118.5542 0017952 282.2052  77.7023 14.33970840649445

Suivez COSMOS 1867 COOLANT en temps réel avec AllMySat

Download on the App Store